Temp
42 43 43 41 43 43 44 45 43 40 37 36 38 38 40 42 44 50 55 54 58 60 61 60 59 59 60 60 61 61 61 60 60 60 59 61 62 62
38 38 38 39 40 40 42 42 42 40 35 33 34 36 39 41 41 41 44 51 55 57 58 57 57 57 58 58 59 59 59 59 58 58 58 59 59 60
33 34 33 35 36 38 38 39 41 41 37 33 35 36 36 38 38 38 39 40 48 55 56 56 56 56 57 57 57 57 57 57 56 57 57 57 58 58
32 33 32 33 33 33 35 34 35 36 37 34 34 34 34 35 36 36 37 39 41 52 55 55 55 55 55 55 55 55 54 54 54 55 56 56 57 56
32 32 32 33 32 33 33 33 33 34 35 37 33 33 33 34 34 34 34 36 38 43 48 51 52 53 53 53 53 52 52 52 52 52 53 54 55 55
32 32 33 33 33 33 33 33 33 33 33 33 32 31 32 32 34 34 34 35 35 38 40 43 45 48 50 51 51 49 49 50 51 51 51 50 50 51
31 33 34 36 37 36 35 33 33 34 34 33 31 31 30 30 31 32 32 33 32 33 34 35 37 38 41 47 47 47 48 49 49 49 49 49 48 48
30 33 34 34 38 39 38 37 35 32 31 32 32 31 30 31 32 31 30 30 31 32 33 33 34 34 37 40 44 45 46 47 48 48 48 48 47 47
31 32 33 35 36 35 37 38 37 37 35 33 31 31 30 31 32 31 31 31 30 29 31 31 34 34 35 38 39 43 46 46 46 46 46 47 46 46
31 32 33 33 34 33 33 33 33 34 34 35 34 33 32 32 32 32 32 30 31 31 31 29 32 31 35 37 38 40 43 44 44 45 45 45 45 45
32 33 33 33 35 34 32 31 31 32 37 38 38 37 36 36 34 32 30 29 28 29 30 29 29 29 32 34 37 40 42 43 44 44 44 45 45 45
30 32 35 34 35 34 31 31 29 31 33 33 33 34 35 36 36 35 32 29 28 27 30 28 29 29 27 34 37 38 40 42 43 43 44 44 44 44
27 28 32 34 33 34 32 30 29 32 32 32 33 34 34 34 34 34 34 33 31 31 33 32 30 30 30 30 32 35 37 38 40 41 43 43 43 42
25 27 29 31 31 31 31 30 31 30 30 30 30 30 30 31 33 33 33 34 35 32 36 34 31 31 30 30 30 31 33 35 36 36 37 37 38 38
28 29 29 28 28 29 29 28 28 28 27 26 26 27 29 31 33 33 33 33 33 33 33 33 32 33 32 30 30 32 31 31 32 32 32 31 31 31
26 27 27 27 27 26 26 26 27 27 26 25 25 27 30 29 29 30 29 30 29 31 33 34 33 32 30 31 31 30 32 29 31 31 30 30 31 31
24 25 24 24 23 24 24 24 25 26 25 25 25 25 26 27 27 28 28 27 26 26 28 30 31 31 30 30 28 30 30 30 31 31 30 28 31 33
23 22 21 22 21 22 22 22 23 22 23 24 24 24 24 24 24 25 26 25 24 25 25 26 26 26 27 29 29 27 28 28 30 30 29 26 27 32
19 19 19 19 19 19 20 20 19 20 22 22 22 22 22 22 22 22 23 23 22 24 25 26 24 22 19 18 28 31 26 26 26 26 28 27 26 28
18 17 16 16 17 17 18 18 18 19 19 20 20 19 19 19 19 19 20 20 20 21 21 23 22 22 20 19 20 25 29 25 25 24 24 26 27 29
16 16 17 16 16 16 16 16 16 17 18 16 17 17 18 17 17 17 18 19 19 19 18 19 22 26 24 23 19 20 25 27 26 23 22 21 20 21
16 16 15 15 15 14 15 14 14 15 15 15 15 16 16 16 15 16 16 16 17 17 17 19 21 19 19 18 17 19 20 23 25 25 26 24 19 14
15 16 15 15 15 14 14 14 12 14 13 13 13 14 14 13 15 16 16 16 15 15 15 15 17 17 15 16 16 16 16 16 18 18 20 24 25 25
MSLP
1016.11 1016.50 1016.63 1017.39 1017.37 1017.34 1017.74 1017.70 1018.54 1020.16 1021.30 1021.83 1022.07 1022.03 1021.94 1021.43 1019.91 1019.51 1019.91 1020.93 1021.51 1021.68 1022.39 1022.91 1023.82 1024.48 1025.04 1025.78 1026.14 1027.30 1027.96 1028.62 1029.26 1029.66 1029.90 1030.10 1030.31 1030.65
1016.88 1017.20 1017.30 1017.48 1018.13 1018.24 1018.34 1018.08 1018.40 1019.21 1021.31 1022.33 1022.75 1022.78 1022.49 1022.10 1021.36 1021.39 1021.19 1021.18 1021.86 1022.08 1022.57 1023.14 1023.78 1024.48 1025.35 1026.03 1026.41 1027.32 1028.01 1028.45 1029.31 1029.89 1030.38 1030.58 1030.51 1031.01
1017.72 1017.84 1018.10 1018.22 1018.82 1018.95 1018.55 1018.58 1019.22 1019.51 1020.45 1022.40 1022.77 1022.90 1023.21 1023.15 1022.90 1022.53 1022.08 1022.24 1022.14 1022.47 1022.88 1023.38 1023.88 1024.60 1025.47 1026.02 1026.77 1027.27 1028.22 1028.93 1029.35 1030.12 1030.40 1030.73 1030.84 1031.12
1018.72 1018.74 1019.06 1019.40 1019.52 1019.31 1019.41 1019.65 1020.37 1020.42 1020.26 1021.63 1023.03 1023.15 1023.64 1024.10 1024.26 1023.48 1023.57 1023.59 1023.12 1022.75 1022.96 1023.52 1024.16 1024.94 1025.52 1026.12 1027.04 1027.83 1028.37 1029.34 1030.29 1030.56 1030.35 1030.78 1031.27 1031.31
1019.43 1019.40 1019.59 1019.90 1020.28 1020.25 1020.55 1020.76 1021.07 1020.88 1021.01 1021.26 1022.78 1023.18 1023.72 1024.30 1024.59 1024.40 1024.89 1024.68 1024.60 1024.47 1024.59 1024.70 1025.24 1025.57 1025.77 1026.37 1027.22 1028.10 1028.48 1029.73 1030.32 1031.05 1031.34 1030.94 1031.29 1031.49
1020.40 1019.98 1020.39 1020.69 1020.74 1021.14 1021.38 1021.55 1021.20 1021.57 1021.92 1022.09 1022.94 1023.68 1024.21 1024.67 1024.79 1025.27 1025.55 1025.77 1025.83 1025.90 1026.09 1025.84 1026.46 1027.01 1026.91 1027.30 1027.63 1028.23 1029.02 1030.07 1030.77 1031.00 1031.38 1031.66 1031.73 1031.85
1020.69 1020.75 1021.30 1021.46 1021.24 1021.43 1021.61 1022.16 1021.96 1021.69 1022.48 1023.13 1023.67 1024.02 1025.00 1025.24 1025.27 1025.83 1026.08 1026.59 1027.07 1027.02 1027.15 1027.25 1027.43 1027.94 1028.06 1028.20 1028.60 1029.13 1029.58 1030.49 1030.97 1031.13 1031.42 1032.05 1032.33 1032.07
1021.68 1022.05 1022.47 1022.17 1021.92 1021.80 1021.94 1022.61 1022.75 1022.57 1023.02 1023.57 1024.34 1024.85 1025.55 1025.88 1025.94 1026.13 1026.63 1027.13 1027.70 1027.93 1027.91 1028.30 1028.65 1028.79 1029.00 1029.23 1029.66 1029.98 1029.98 1030.30 1030.50 1030.85 1031.62 1031.90 1032.15 1032.23
1022.82 1022.87 1023.11 1023.09 1023.16 1023.18 1023.06 1023.33 1023.11 1023.53 1024.06 1024.48 1025.06 1025.78 1026.10 1026.29 1026.48 1026.80 1027.22 1027.55 1028.03 1028.81 1028.72 1028.86 1029.12 1029.24 1029.52 1029.65 1029.98 1029.95 1029.97 1030.34 1030.69 1031.14 1031.37 1031.38 1031.50 1031.84
1023.69 1023.88 1023.76 1023.91 1024.19 1024.05 1024.28 1024.49 1024.50 1024.86 1025.18 1025.26 1025.77 1026.38 1026.71 1026.83 1026.84 1027.15 1027.59 1028.00 1028.54 1029.06 1029.34 1029.42 1029.66 1029.74 1029.66 1029.83 1029.87 1030.00 1029.92 1030.15 1030.52 1030.72 1030.97 1031.40 1031.50 1031.39
1024.41 1024.16 1024.50 1024.73 1024.80 1025.08 1025.39 1025.25 1025.49 1025.85 1025.96 1025.94 1026.29 1026.73 1026.94 1026.98 1027.22 1027.42 1027.87 1028.37 1028.85 1029.34 1029.90 1029.67 1029.77 1029.85 1030.04 1029.93 1029.90 1029.86 1029.77 1029.69 1029.98 1030.26 1030.58 1030.68 1031.02 1031.27
1025.30 1025.12 1025.21 1025.02 1025.32 1025.87 1025.83 1026.09 1026.37 1026.67 1027.10 1027.15 1027.34 1027.46 1027.61 1027.40 1027.67 1027.87 1028.17 1028.51 1028.92 1029.24 1029.82 1030.08 1029.95 1030.12 1030.07 1029.75 1029.42 1029.66 1029.82 1029.64 1029.76 1029.92 1030.14 1030.31 1030.51 1030.76
1026.29 1026.56 1026.39 1026.06 1026.26 1026.21 1026.66 1027.03 1027.61 1027.50 1027.53 1027.58 1027.59 1028.01 1028.10 1028.22 1028.16 1028.44 1028.49 1028.70 1029.01 1029.05 1029.42 1029.83 1029.85 1029.98 1029.97 1029.88 1029.81 1029.86 1029.89 1029.78 1029.67 1029.60 1029.75 1029.82 1030.26 1030.58
1027.42 1027.55 1027.50 1027.36 1027.53 1027.52 1027.92 1028.10 1028.31 1028.06 1028.08 1028.29 1028.01 1028.50 1028.84 1029.05 1028.88 1029.03 1029.32 1029.22 1029.05 1029.38 1029.52 1029.81 1029.79 1029.68 1029.71 1029.70 1029.84 1030.14 1029.90 1029.81 1029.94 1029.90 1029.97 1030.18 1030.28 1030.68
1028.02 1027.98 1028.31 1028.61 1028.72 1028.78 1028.98 1028.98 1028.94 1028.64 1028.47 1028.84 1029.05 1029.48 1029.85 1029.66 1029.20 1029.05 1029.17 1029.31 1029.58 1029.62 1029.79 1029.80 1029.79 1029.71 1029.71 1029.54 1029.47 1029.39 1029.80 1029.97 1030.02 1029.98 1030.06 1030.29 1030.55 1030.93
1028.79 1028.76 1029.04 1029.30 1029.55 1029.88 1030.07 1029.85 1029.44 1029.13 1029.18 1029.55 1029.98 1030.23 1030.07 1030.01 1029.75 1029.56 1029.54 1029.98 1029.96 1029.56 1029.63 1029.78 1029.99 1029.85 1029.61 1029.56 1029.53 1029.46 1029.62 1029.73 1029.72 1029.90 1030.01 1030.04 1030.28 1030.49
1029.57 1029.51 1029.42 1029.79 1030.05 1030.29 1030.21 1029.83 1029.46 1029.77 1030.08 1030.39 1030.63 1030.69 1030.52 1030.37 1030.47 1030.14 1030.17 1030.40 1030.17 1029.84 1029.76 1029.95 1030.22 1030.21 1029.95 1029.79 1029.66 1029.60 1029.63 1029.70 1029.58 1029.66 1029.74 1029.80 1029.69 1029.54
1029.69 1029.82 1030.21 1030.43 1030.44 1030.36 1030.17 1030.12 1030.55 1030.98 1031.14 1031.27 1031.20 1031.22 1030.92 1031.01 1030.83 1030.38 1030.76 1030.71 1030.52 1030.41 1030.47 1030.73 1030.70 1030.51 1030.09 1030.08 1030.25 1029.95 1029.84 1029.80 1029.59 1029.43 1029.47 1029.34 1029.16 1029.11
1029.81 1030.06 1030.30 1030.39 1030.55 1030.81 1030.74 1030.81 1031.34 1031.93 1031.96 1031.87 1031.94 1031.62 1031.49 1031.38 1031.14 1031.07 1031.14 1031.17 1030.94 1030.84 1030.88 1030.96 1030.93 1030.83 1030.55 1030.18 1029.98 1030.06 1030.18 1030.14 1029.84 1029.62 1029.46 1029.19 1029.00 1028.98
1029.93 1030.11 1030.65 1030.80 1030.94 1031.07 1031.25 1031.35 1031.94 1032.20 1031.92 1031.86 1031.81 1032.00 1032.03 1031.82 1031.97 1031.89 1031.54 1031.72 1031.70 1031.45 1031.38 1031.40 1031.35 1031.25 1030.93 1030.58 1030.20 1030.16 1030.24 1030.36 1029.96 1029.72 1029.59 1029.43 1029.28 1029.17
1030.15 1030.50 1030.58 1030.82 1031.10 1031.29 1031.56 1031.78 1031.98 1032.16 1032.09 1032.35 1032.44 1032.43 1032.44 1032.68 1032.45 1031.97 1032.03 1032.03 1031.71 1031.25 1031.17 1031.29 1031.08 1031.13 1030.97 1030.77 1030.59 1030.22 1030.10 1030.25 1030.38 1030.14 1029.86 1029.64 1029.07 1029.00
1029.99 1030.22 1030.52 1030.91 1031.28 1031.46 1031.72 1032.16 1032.54 1032.61 1032.66 1032.89 1033.02 1033.11 1033.16 1033.13 1032.82 1032.74 1032.64 1032.29 1032.00 1031.89 1031.89 1031.86 1031.46 1031.55 1031.12 1030.74 1030.44 1030.19 1030.18 1030.17 1030.30 1030.00 1029.76 1029.68 1029.44 1028.99
1029.87 1030.10 1030.42 1030.83 1031.26 1031.60 1031.99 1032.12 1032.37 1032.67 1032.87 1032.94 1033.18 1033.39 1033.64 1033.47 1033.13 1032.79 1032.59 1032.43 1032.33 1032.20 1032.05 1031.86 1031.54 1031.61 1031.44 1031.20 1030.90 1030.55 1030.28 1030.36 1030.22 1029.63 1029.28 1029.15 1028.92 1028.58
Wind_Speed
5 8 7 3 3 3 1 4 3 3 2 3 2 6 5 6 13 5 7 5 15 21 21 22 20 19 20 19 20 18 17 15 12 11 7 9 10 10
5 7 6 5 4 2 3 3 3 4 4 0 3 4 7 5 12 8 8 6 8 8 12 19 20 20 18 18 19 18 17 17 14 12 10 10 8 10
7 8 8 6 4 4 3 4 3 1 5 2 2 4 5 7 7 8 10 8 2 8 12 19 20 18 18 18 17 17 16 16 15 13 13 12 12 11
8 9 8 5 6 6 5 7 4 3 3 5 1 3 4 4 4 9 8 8 7 6 15 19 19 21 19 19 17 16 15 12 10 12 14 13 13 12
9 9 8 8 7 6 6 6 4 4 3 5 3 2 3 2 4 5 5 6 7 18 16 13 14 16 19 19 17 14 12 9 9 8 9 10 10 12
9 10 9 8 8 7 6 6 6 6 5 6 5 4 3 3 3 2 4 4 6 7 13 15 14 9 11 12 13 13 10 8 9 10 7 5 6 7
12 9 9 12 16 12 6 6 5 7 6 5 4 3 3 2 3 1 3 2 3 4 3 5 5 4 5 5 7 8 9 8 9 9 9 9 8 8
11 13 12 14 15 19 19 17 11 7 8 5 4 4 4 3 2 2 2 1 2 4 3 2 3 3 3 3 3 5 7 9 11 10 11 11 11 10
10 10 9 9 13 11 18 19 20 19 14 7 7 5 4 3 3 3 3 2 3 1 2 2 1 1 1 0 5 7 9 11 12 12 12 12 10 11
10 9 9 11 10 10 11 11 12 12 10 8 9 6 6 5 5 3 3 5 5 4 1 1 2 2 2 3 8 10 11 13 13 13 11 12 12 12
10 11 12 12 16 14 9 11 10 9 11 14 13 11 9 8 6 4 4 3 2 2 0 1 2 1 3 5 6 13 14 13 14 13 12 13 13 12
9 11 15 12 17 15 8 9 9 8 6 7 5 8 9 7 6 4 3 3 2 1 3 3 2 1 2 5 5 7 8 17 16 15 15 15 15 7
6 7 7 15 17 18 17 10 9 7 9 6 6 5 5 5 4 3 2 1 0 1 3 3 3 3 3 1 1 3 5 7 7 9 16 17 17 13
6 5 7 14 11 13 12 13 12 10 6 6 6 6 5 5 4 4 3 1 2 3 3 6 2 5 6 4 5 2 3 4 4 4 3 6 10 11
5 9 13 11 11 10 11 10 9 5 6 6 6 5 4 4 4 4 3 3 1 2 2 3 5 6 6 6 6 5 5 5 5 6 5 5 5 4
7 7 9 10 10 7 6 7 6 6 5 4 4 3 3 4 4 5 4 4 3 2 1 4 4 5 6 6 7 5 5 4 4 6 4 4 4 6
5 3 4 4 4 4 5 6 6 6 5 5 4 3 3 3 3 4 4 3 3 4 4 4 6 5 5 7 6 6 5 5 5 4 5 6 7 6
5 5 5 4 4 4 4 5 5 5 4 4 3 3 3 3 3 3 3 3 4 3 3 3 4 5 5 4 4 6 5 6 4 5 6 7 8 7
5 4 4 4 3 3 3 4 4 4 3 3 3 3 3 3 4 3 4 4 4 5 5 5 5 5 7 8 5 4 6 6 3 4 5 6 8 6
4 4 4 3 3 2 2 2 2 2 3 3 3 4 3 4 4 4 4 5 5 6 6 5 6 6 7 8 8 7 4 6 7 7 6 5 6 12
4 4 4 4 3 3 2 1 1 1 2 2 3 3 3 3 4 4 5 8 9 7 7 7 7 12 6 5 7 7 6 6 6 7 6 7 8 8
6 6 5 4 4 4 3 2 2 2 1 2 2 3 3 4 5 5 5 5 6 6 6 7 7 6 7 8 8 8 6 6 9 12 13 13 7 9
6 6 5 5 5 5 4 4 3 3 3 2 3 3 4 5 5 6 7 7 6 6 6 6 5 4 6 5 8 7 9 7 8 9 8 16 19 22
Wind_Direction
107 125 118 100 83 73 146 120 109 146 123 35 4 16 353 341 19 31 124 125 175 172 178 165 163 160 160 163 157 164 161 155 154 158 142 180 174 177
75 87 87 80 66 81 97 82 114 121 109 8 28 26 17 358 24 21 31 116 162 176 171 158 155 156 162 162 155 161 161 159 159 167 177 183 174 176
65 79 70 66 80 54 59 54 64 3 115 97 92 31 39 26 20 23 33 23 344 179 174 157 152 156 159 153 147 140 150 157 161 180 190 195 190 180
68 78 72 69 68 62 60 64 52 350 102 119 160 89 73 39 34 51 25 35 5 89 156 154 151 144 133 130 131 135 140 151 174 201 192 198 198 190
68 68 67 71 59 65 73 80 65 42 35 115 118 125 88 58 50 53 30 35 39 49 60 96 122 130 132 130 130 131 128 148 177 213 227 205 210 212
65 67 62 69 80 72 70 73 81 75 54 75 72 71 70 47 69 80 76 36 40 45 50 62 61 80 112 128 129 128 130 165 202 208 213 220 222 233
60 58 75 87 81 81 78 60 63 88 79 75 76 84 58 49 73 55 72 67 59 34 49 38 50 41 42 100 103 116 139 182 207 212 215 226 229 229
68 69 63 53 74 84 82 77 68 67 74 74 64 70 84 79 68 69 85 73 109 13 51 69 37 39 22 16 189 181 187 204 205 217 224 226 227 234
71 73 66 58 59 59 65 67 67 69 68 66 79 53 69 54 79 90 82 77 76 66 56 122 85 116 124 291 280 273 218 218 225 229 229 222 230 243
73 70 89 83 75 71 73 72 68 65 64 72 79 79 78 74 62 65 75 81 84 95 104 148 135 247 257 240 236 239 238 226 235 232 231 243 241 234
72 68 78 83 80 80 79 81 76 62 60 76 82 79 88 95 98 105 95 109 82 84 133 24 141 219 227 242 242 250 244 240 229 220 231 244 246 247
63 54 76 92 81 75 78 85 83 73 75 75 64 55 48 72 89 64 117 131 113 144 144 200 123 155 268 246 227 227 229 237 238 234 237 241 239 240
70 57 68 72 69 79 71 69 77 80 76 85 84 67 63 63 67 51 55 16 311 308 135 194 201 191 253 340 245 235 237 238 244 240 238 242 242 245
84 66 64 76 71 74 78 69 67 64 66 70 73 64 53 36 35 47 55 350 350 338 334 202 263 227 235 251 251 215 234 223 221 224 249 250 262 263
97 91 82 81 79 69 73 72 68 66 72 70 66 63 41 26 24 40 42 37 6 296 342 288 243 261 253 259 267 231 214 220 220 228 210 207 214 221
93 96 87 87 86 84 72 65 63 67 71 69 64 41 25 21 45 33 15 2 323 307 323 281 294 302 279 259 265 268 239 232 207 224 228 225 226 238
128 123 101 96 95 86 78 69 65 56 60 58 54 41 37 18 17 21 15 348 348 9 354 20 355 339 322 294 276 267 259 242 232 230 235 243 246 247
144 138 129 121 108 97 83 82 67 60 52 49 44 20 20 11 6 8 347 326 312 324 332 337 330 322 304 266 240 286 290 273 268 259 248 259 265 264
134 133 129 118 104 91 82 68 67 53 36 47 38 27 18 356 345 340 340 331 319 313 307 312 307 304 294 282 281 249 288 295 310 291 284 279 279 279
141 147 153 147 131 115 97 82 60 21 23 23 26 20 9 3 349 335 325 313 298 298 296 290 280 280 279 285 295 299 314 283 284 286 289 292 286 288
170 174 167 164 165 158 143 126 24 337 358 354 335 337 343 333 324 329 317 313 316 314 303 296 300 322 302 290 270 265 260 265 298 288 294 288 281 285
179 182 178 176 177 172 171 187 212 225 229 256 271 279 283 282 279 278 277 287 292 295 299 302 301 297 270 261 268 281 274 278 291 286 277 272 273 275
191 193 184 184 182 180 186 192 204 224 215 222 241 245 246 255 262 270 269 266 263 266 269 281 288 272 271 292 300 303 293 273 277 285 276 277 282 284